Henderson, KY

8:01 AM CST on November 18, 2019 (GMT -0600)
Henderson City-County

Weather History for KEHR - September, 2019

Change the Weather History Date:

Thursday, September 19, 2019

  Actual Average Record
Temperature  
Mean Temperature 74 °F -  
Max Temperature 91 °F 80 °F 99 °F (1940)
Min Temperature 57 °F 58 °F 40 °F (1938)
Cooling Degree Days 9    
Growing Degree Days 24 (Base 50)    
Moisture  
Dew Point 61 °F    
Average Humidity 82    
Maximum Humidity 100    
Minimum Humidity 39    
Precipitation  
Precipitation 0.00 in - - ()
Sea Level Pressure  
Sea Level Pressure 30.04 in    
Wind  
Wind Speed 1 mph (South)    
Max Wind Speed 8 mph    
Max Gust Speed -    
Visibility 6 miles    
Events Fog    
Averages and records for this station are not official NWS values.
T = Trace of Precipitation, MM = Missing Value Source: NWS Daily Summary

Daily Weather History Graph

Daily Weather History Graph

Search for Another Location

Airport or City:

Astronomy

Sep. 19, 2019 Rise Set
Actual Time 6:35 AM CDT 6:52 PM CDT
Civil Twilight 6:09 AM CDT 7:18 PM CDT
Nautical Twilight 5:38 AM CDT 7:49 PM CDT
Astronomical Twilight 5:07 AM CDT 8:20 PM CDT
Moon 10:06 PM CDT (9/19) 11:33 AM CDT (9/19)
Length of Visible Light 13h 09m
Length of Day
12h 16m
Waning Gibbous, 74% of the Moon is Illuminated
Sep 19
Waning Gibbous
Sep 21
Last Quarter
Sep 28
New
Oct 5
First Quarter
Oct 13
Full

Hourly Weather History & Observations

Time (CDT) Temp. Heat Index Dew Point Humidity Pressure Visibility Wind Dir Wind Speed Gust Speed Precip Events Conditions
12:56 AM 62.1 °F - 60.1 °F 93% 30.02 in 10.0 mi Calm Calm - N/A   Clear
1:56 AM 61.0 °F - 60.1 °F 97% 30.03 in 10.0 mi Calm Calm - N/A   Clear
2:56 AM 60.1 °F - 59.0 °F 96% 30.03 in 8.0 mi Calm Calm - N/A   Clear
3:56 AM 59.0 °F - 57.9 °F 96% 30.02 in 7.0 mi Calm Calm - N/A   Clear
4:14 AM 59.0 °F - 57.2 °F 94% 30.03 in 1.2 mi Calm Calm - N/A   Clear
4:30 AM 59.0 °F - 59.0 °F 100% 30.03 in 8.0 mi Calm Calm - N/A   Clear
4:56 AM 59.0 °F - 57.9 °F 96% 30.02 in 6.0 mi Calm Calm - N/A   Clear
5:14 AM 59.0 °F - 57.2 °F 94% 30.03 in 1.5 mi Calm Calm - N/A   Clear
5:16 AM 59.0 °F - 57.2 °F 94% 30.03 in 0.8 mi Calm Calm - N/A   Clear
5:20 AM 57.2 °F - 57.2 °F 100% 30.03 in 0.2 mi Calm Calm - N/A Fog Fog
5:41 AM 57.2 °F - 57.2 °F 100% 30.04 in 0.8 mi Calm Calm - N/A   Clear
5:47 AM 57.2 °F - 57.2 °F 100% 30.04 in 1.2 mi Calm Calm - N/A   Clear
5:56 AM 57.9 °F - 57.0 °F 97% 30.03 in 1.0 mi Calm Calm - N/A   Clear
6:04 AM 57.2 °F - 57.2 °F 100% 30.04 in 0.5 mi Calm Calm - N/A Fog Fog
6:13 AM 57.2 °F - 57.2 °F 100% 30.04 in 0.2 mi Calm Calm - N/A Fog Fog
6:40 AM 57.2 °F - 57.2 °F 100% 30.04 in 0.8 mi Calm Calm - N/A   Clear
6:44 AM 57.2 °F - 57.2 °F 100% 30.04 in 2.5 mi North - - N/A   Clear
6:51 AM 57.2 °F - 57.2 °F 100% 30.05 in 4.0 mi North - - N/A   Clear
6:56 AM 57.9 °F - 57.0 °F 97% 30.04 in 5.0 mi North - - N/A   Clear
7:56 AM 66.9 °F - 64.0 °F 90% 30.06 in 10.0 mi Calm Calm - N/A   Clear
8:56 AM 72.0 °F - 64.0 °F 76% 30.08 in 10.0 mi SSE 4.6 mph - N/A   Clear
9:56 AM 79.0 °F - 64.9 °F 62% 30.09 in 10.0 mi Variable 6.9 mph - N/A   Clear
10:56 AM 84.0 °F 86.3 °F 66.0 °F 55% 30.09 in 10.0 mi Variable 4.6 mph - N/A   Clear
11:56 AM 86.0 °F 86.8 °F 63.0 °F 46% 30.08 in 10.0 mi SW 8.1 mph - N/A   Clear
12:56 PM 89.1 °F 90.0 °F 63.0 °F 42% 30.06 in 10.0 mi South 8.1 mph - N/A   Clear
1:56 PM 89.1 °F 89.3 °F 62.1 °F 40% 30.04 in 10.0 mi Variable 3.5 mph - N/A   Clear
2:56 PM 90.0 °F 90.6 °F 63.0 °F 40% 30.03 in 10.0 mi Variable 3.5 mph - N/A   Clear
3:56 PM 91.0 °F 91.9 °F 63.0 °F 39% 30.02 in 10.0 mi ENE 5.8 mph - N/A   Clear
4:56 PM 89.1 °F 90.0 °F 63.0 °F 42% 30.01 in 10.0 mi North 5.8 mph - N/A   Clear
6:56 PM 80.1 °F 82.1 °F 66.0 °F 62% 30.02 in 10.0 mi Calm Calm - N/A   Clear
7:56 PM 72.0 °F - 66.0 °F 81% 30.03 in 10.0 mi Calm Calm - N/A   Clear
8:56 PM 71.1 °F - 64.9 °F 81% 30.04 in 10.0 mi Calm Calm - N/A   Clear
9:56 PM 69.1 °F - 64.0 °F 84% 30.06 in 10.0 mi Calm Calm - N/A   Clear
10:56 PM 66.9 °F - 64.0 °F 90% 30.06 in 10.0 mi WSW 3.5 mph - N/A   Clear
11:56 PM 66.0 °F - 64.0 °F 93% 30.06 in 10.0 mi South 3.5 mph - N/A   Clear